owner,sensor,date,latitude,longitude,vertical_datum,direction_of_sea_water_velocity,sea_water_speed,upward_sea_water_velocity,qcFlag 
TABS,ioos:station:wmo:42050:1,2002-07-01T00:00:00Z,28.8425,-94.2433,2.0,19.63616536,6.487256739,-99999.0,'11133222,11111222,99999999' 
TABS,ioos:station:wmo:42050:1,2002-07-01T00:30:00Z,28.8425,-94.2433,2.0,356.5540868,5.48992714,-99999.0,'11133222,11111222,99999999' 
TABS,ioos:station:wmo:42050:1,2002-07-01T01:00:00Z,28.8425,-94.2433,2.0,12.75771279,3.803905887,-99999.0,'11133222,11111222,99999999' 
TABS,ioos:station:wmo:42050:1,2002-07-01T01:30:00Z,28.8425,-94.2433,2.0,339.7938391,3.068876016,-99999.0,'11133222,11111222,99999999' 
TABS,ioos:station:wmo:42050:1,2002-07-01T02:00:00Z,28.8425,-94.2433,2.0,284.2021298,4.198309183,-99999.0,'11133222,11111222,99999999' 
TABS,ioos:station:wmo:42050:1,2002-07-01T02:30:00Z,28.8425,-94.2433,2.0,272.6339692,5.876206259,-99999.0,'11133222,11111222,99999999' 
TABS,ioos:station:wmo:42050:1,2002-07-01T03:00:00Z,28.8425,-94.2433,2.0,249.1811943,9.20070106,-99999.0,'11133222,11111222,99999999' 
TABS,ioos:station:wmo:42050:1,2002-07-01T03:30:00Z,28.8425,-94.2433,2.0,265.8639805,7.349136004,-99999.0,'11133222,11111222,99999999' 
TABS,ioos:station:wmo:42050:1,2002-07-01T04:00:00Z,28.8425,-94.2433,2.0,285.8356487,8.575435849,-99999.0,'11133222,11111222,99999999' 
TABS,ioos:station:wmo:42050:1,2002-07-01T04:30:00Z,28.8425,-94.2433,2.0,275.1231561,9.407576734,-99999.0,'11133222,11111222,99999999' 
TABS,ioos:station:wmo:42050:1,2002-07-01T05:00:00Z,28.8425,-94.2433,2.0,282.0096561,10.76561656,-99999.0,'11111222,11111222,99999999' 
TABS,ioos:station:wmo:42050:1,2002-07-01T05:30:00Z,28.8425,-94.2433,2.0,287.5895316,12.21088449,-99999.0,'11111222,11111222,99999999' 
TABS,ioos:station:wmo:42050:1,2002-07-01T06:00:00Z,28.8425,-94.2433,2.0,294.7899058,11.11412165,-99999.0,'11111222,11111222,99999999' 
TABS,ioos:station:wmo:42050:1,2002-07-01T06:30:00Z,28.8425,-94.2433,2.0,299.6783376,10.62358226,-99999.0,'11111222,11111222,99999999' 
TABS,ioos:station:wmo:42050:1,2002-07-01T07:00:00Z,28.8425,-94.2433,2.0,312.1678266,14.88156578,-99999.0,'11111222,11111222,99999999' 
TABS,ioos:station:wmo:42050:1,2002-07-01T07:30:00Z,28.8425,-94.2433,2.0,320.488394,16.48752559,-99999.0,'11111222,11111222,99999999' 
TABS,ioos:station:wmo:42050:1,2002-07-01T08:00:00Z,28.8425,-94.2433,2.0,322.8943383,16.9901442,-99999.0,'11111222,11111222,99999999' 
TABS,ioos:station:wmo:42050:1,2002-07-01T08:30:00Z,28.8425,-94.2433,2.0,344.4513062,22.23371314,-99999.0,'11111222,11111222,99999999' 
TABS,ioos:station:wmo:42050:1,2002-07-01T09:00:00Z,28.8425,-94.2433,2.0,350.7700291,22.31898967,-99999.0,'11111222,11111222,99999999' 
TABS,ioos:station:wmo:42050:1,2002-07-01T09:30:00Z,28.8425,-94.2433,2.0,353.0703761,22.21226913,-99999.0,'11111222,11111222,99999999' 
TABS,ioos:station:wmo:42050:1,2002-07-01T10:00:00Z,28.8425,-94.2433,2.0,357.879119,21.34462462,-99999.0,'11111222,11111222,99999999' 
TABS,ioos:station:wmo:42050:1,2002-07-01T10:30:00Z,28.8425,-94.2433,2.0,355.2335148,15.52369157,-99999.0,'11111222,11111222,99999999' 
TABS,ioos:station:wmo:42050:1,2002-07-01T11:00:00Z,28.8425,-94.2433,2.0,1.699348813,12.81563498,-99999.0,'11111222,11111222,99999999' 
TABS,ioos:station:wmo:42050:1,2002-07-01T11:30:00Z,28.8425,-94.2433,2.0,4.579332086,21.91996807,-99999.0,'11111222,11111222,99999999' 
TABS,ioos:station:wmo:42050:1,2002-07-01T12:00:00Z,28.8425,-94.2433,2.0,11.05904995,23.72047428,-99999.0,'11111222,11111222,99999999' 
TABS,ioos:station:wmo:42050:1,2002-07-01T12:30:00Z,28.8425,-94.2433,2.0,10.94801012,23.27356655,-99999.0,'11111222,11111222,99999999' 
TABS,ioos:station:wmo:42050:1,2002-07-01T13:00:00Z,28.8425,-94.2433,2.0,13.85915773,14.1107902,-99999.0,'11111222,11111222,99999999' 
TABS,ioos:station:wmo:42050:1,2002-07-01T13:30:00Z,28.8425,-94.2433,2.0,23.84821754,18.30266647,-99999.0,'11111222,11111222,99999999' 
TABS,ioos:station:wmo:42050:1,2002-07-01T14:30:00Z,28.8425,-94.2433,2.0,11.15165402,9.927436729,-99999.0,'11133222,11111222,99999999' 
TABS,ioos:station:wmo:42050:1,2002-07-01T15:00:00Z,28.8425,-94.2433,2.0,24.84254147,8.330882306,-99999.0,'11133222,11111222,99999999' 
TABS,ioos:station:wmo:42050:1,2002-07-01T15:30:00Z,28.8425,-94.2433,2.0,45.00010523,6.703372286,-99999.0,'11133222,11111222,99999999' 
TABS,ioos:station:wmo:42050:1,2002-07-01T16:00:00Z,28.8425,-94.2433,2.0,44.19044113,12.50996803,-99999.0,'11111222,11111222,99999999' 
TABS,ioos:station:wmo:42050:1,2002-07-01T16:30:00Z,28.8425,-94.2433,2.0,71.59273328,13.1108047,-99999.0,'11111222,11111222,99999999' 
TABS,ioos:station:wmo:42050:1,2002-07-01T17:00:00Z,28.8425,-94.2433,2.0,69.26866362,9.943862429,-99999.0,'11133222,11111222,99999999' 
TABS,ioos:station:wmo:42050:1,2002-07-01T17:30:00Z,28.8425,-94.2433,2.0,90.309035,9.270134843,-99999.0,'11133222,11111222,99999999' 
TABS,ioos:station:wmo:42050:1,2002-07-01T18:00:00Z,28.8425,-94.2433,2.0,110.6261646,8.601360358,-99999.0,'11133222,11111222,99999999' 
TABS,ioos:station:wmo:42050:1,2002-07-01T18:30:00Z,28.8425,-94.2433,2.0,120.3773878,10.22356591,-99999.0,'11111222,11111222,99999999' 
TABS,ioos:station:wmo:42050:1,2002-07-01T19:00:00Z,28.8425,-94.2433,2.0,130.4144247,6.987367172,-99999.0,'11133222,11111222,99999999' 
TABS,ioos:station:wmo:42050:1,2002-07-01T19:30:00Z,28.8425,-94.2433,2.0,124.7460101,7.82537539,-99999.0,'11133222,11111222,99999999' 
TABS,ioos:station:wmo:42050:1,2002-07-01T20:00:00Z,28.8425,-94.2433,2.0,139.9744061,7.339128014,-99999.0,'11133222,11111222,99999999' 
TABS,ioos:station:wmo:42050:1,2002-07-01T20:30:00Z,28.8425,-94.2433,2.0,140.4353598,3.956374603,-99999.0,'11133222,11111222,99999999' 
TABS,ioos:station:wmo:42050:1,2002-07-01T21:00:00Z,28.8425,-94.2433,2.0,175.236159,2.047071078,-99999.0,'11133222,11111222,99999999' 
TABS,ioos:station:wmo:42050:1,2002-07-01T21:30:00Z,28.8425,-94.2433,2.0,130.9803217,2.622746652,-99999.0,'11133222,11111222,99999999' 
TABS,ioos:station:wmo:42050:1,2002-07-01T22:00:00Z,28.8425,-94.2433,2.0,244.7015857,2.831554343,-99999.0,'11133222,11111222,99999999' 
TABS,ioos:station:wmo:42050:1,2002-07-01T22:30:00Z,28.8425,-94.2433,2.0,235.9224635,3.28390012,-99999.0,'11133222,11111222,99999999' 
TABS,ioos:station:wmo:42050:1,2002-07-01T23:00:00Z,28.8425,-94.2433,2.0,243.3314477,4.968551097,-99999.0,'11133222,11111222,99999999' 
TABS,ioos:station:wmo:42050:1,2002-07-01T23:30:00Z,28.8425,-94.2433,2.0,289.283391,3.845750902,-99999.0,'11133222,11111222,99999999' 
TABS,ioos:station:wmo:42050:1,2002-07-02T00:00:00Z,28.8425,-94.2433,2.0,253.7250334,4.781600151,-99999.0,'11133222,11111222,99999999' 
TABS,ioos:station:wmo:42050:1,2002-07-02T00:30:00Z,28.8425,-94.2433,2.0,222.8714336,4.188961685,-99999.0,'11133222,11111222,99999999' 
TABS,ioos:station:wmo:42050:1,2002-07-02T01:00:00Z,28.8425,-94.2433,2.0,204.5071375,2.241985727,-99999.0,'11133222,11111222,99999999' 
TABS,ioos:station:wmo:42050:1,2002-07-02T01:30:00Z,28.8425,-94.2433,2.0,265.9271493,3.097821815,-99999.0,'11133222,11111222,99999999' 
TABS,ioos:station:wmo:42050:1,2002-07-02T02:00:00Z,28.8425,-94.2433,2.0,219.2811035,5.038462067,-99999.0,'11133222,11111222,99999999' 
TABS,ioos:station:wmo:42050:1,2002-07-02T02:30:00Z,28.8425,-94.2433,2.0,233.8966567,6.126548784,-99999.0,'11133222,11111222,99999999' 
TABS,ioos:station:wmo:42050:1,2002-07-02T03:00:00Z,28.8425,-94.2433,2.0,215.8951047,6.702969491,-99999.0,'11133222,11111222,99999999' 
TABS,ioos:station:wmo:42050:1,2002-07-02T03:30:00Z,28.8425,-94.2433,2.0,241.9271578,6.29,-99999.0,'11133222,11111222,99999999' 
TABS,ioos:station:wmo:42050:1,2002-07-02T04:00:00Z,28.8425,-94.2433,2.0,253.505836,9.615679903,-99999.0,'11133222,11111222,99999999' 
TABS,ioos:station:wmo:42050:1,2002-07-02T04:30:00Z,28.8425,-94.2433,2.0,245.5556815,7.249827584,-99999.0,'11133222,11111222,99999999' 
TABS,ioos:station:wmo:42050:1,2002-07-02T05:30:00Z,28.8425,-94.2433,2.0,234.6865167,10.08572258,-99999.0,'11111222,11111222,99999999' 
TABS,ioos:station:wmo:42050:1,2002-07-02T06:00:00Z,28.8425,-94.2433,2.0,258.3733097,6.748459083,-99999.0,'11133222,11111222,99999999' 
TABS,ioos:station:wmo:42050:1,2002-07-02T06:30:00Z,28.8425,-94.2433,2.0,269.7679268,7.420060647,-99999.0,'11133222,11111222,99999999' 
TABS,ioos:station:wmo:42050:1,2002-07-02T07:00:00Z,28.8425,-94.2433,2.0,262.6236845,6.231564812,-99999.0,'11133222,11111222,99999999' 
TABS,ioos:station:wmo:42050:1,2002-07-02T07:30:00Z,28.8425,-94.2433,2.0,243.3163736,6.502499519,-99999.0,'11133222,11111222,99999999' 
TABS,ioos:station:wmo:42050:1,2002-07-02T08:00:00Z,28.8425,-94.2433,2.0,325.2748709,5.986192446,-99999.0,'11133222,11111222,99999999' 
TABS,ioos:station:wmo:42050:1,2002-07-02T08:30:00Z,28.8425,-94.2433,2.0,344.4539195,4.14152146,-99999.0,'11133222,11111222,99999999' 
TABS,ioos:station:wmo:42050:1,2002-07-02T09:00:00Z,28.8425,-94.2433,2.0,355.5235622,5.637197885,-99999.0,'11133222,11111222,99999999' 
TABS,ioos:station:wmo:42050:1,2002-07-02T09:30:00Z,28.8425,-94.2433,2.0,359.2488352,9.150786851,-99999.0,'11133222,11144222,99999999' 
TABS,ioos:station:wmo:42050:1,2002-07-02T10:00:00Z,28.8425,-94.2433,2.0,4.413770139,11.8250666,-99999.0,'11111222,11111222,99999999' 
TABS,ioos:station:wmo:42050:1,2002-07-02T10:30:00Z,28.8425,-94.2433,2.0,5.305767179,8.867993009,-99999.0,'11133222,11111222,99999999' 
TABS,ioos:station:wmo:42050:1,2002-07-02T11:30:00Z,28.8425,-94.2433,2.0,354.3031862,16.82309425,-99999.0,'11111222,11111222,99999999' 
TABS,ioos:station:wmo:42050:1,2002-07-02T12:00:00Z,28.8425,-94.2433,2.0,7.174289137,17.37603234,-99999.0,'11111222,11111222,99999999' 
TABS,ioos:station:wmo:42050:1,2002-07-02T12:30:00Z,28.8425,-94.2433,2.0,354.2517913,16.57334305,-99999.0,'11111222,11111222,99999999' 
TABS,ioos:station:wmo:42050:1,2002-07-02T13:00:00Z,28.8425,-94.2433,2.0,357.247397,16.44898173,-99999.0,'11111222,11111222,99999999' 
TABS,ioos:station:wmo:42050:1,2002-07-02T13:30:00Z,28.8425,-94.2433,2.0,11.29509403,14.9597393,-99999.0,'11111222,11111222,99999999' 
TABS,ioos:station:wmo:42050:1,2002-07-02T14:00:00Z,28.8425,-94.2433,2.0,9.761221846,16.39737784,-99999.0,'11111222,11111222,99999999' 
TABS,ioos:station:wmo:42050:1,2002-07-02T14:30:00Z,28.8425,-94.2433,2.0,14.6939132,15.21768708,-99999.0,'11111222,11111222,99999999' 
TABS,ioos:station:wmo:42050:1,2002-07-02T15:00:00Z,28.8425,-94.2433,2.0,27.99625578,12.35589333,-99999.0,'11111222,11111222,99999999' 
TABS,ioos:station:wmo:42050:1,2002-07-02T15:30:00Z,28.8425,-94.2433,2.0,33.82451561,16.56339337,-99999.0,'11111222,11111222,99999999' 
TABS,ioos:station:wmo:42050:1,2002-07-02T16:00:00Z,28.8425,-94.2433,2.0,37.95109922,13.88647183,-99999.0,'11111222,11111222,99999999' 
TABS,ioos:station:wmo:42050:1,2002-07-02T16:30:00Z,28.8425,-94.2433,2.0,36.30537159,12.58261102,-99999.0,'11111222,11111222,99999999' 
TABS,ioos:station:wmo:42050:1,2002-07-02T17:30:00Z,28.8425,-94.2433,2.0,69.98178591,8.354765107,-99999.0,'11133222,11111222,99999999' 
TABS,ioos:station:wmo:42050:1,2002-07-02T18:00:00Z,28.8425,-94.2433,2.0,88.28735143,9.034035643,-99999.0,'11133222,11111222,99999999' 
TABS,ioos:station:wmo:42050:1,2002-07-02T18:30:00Z,28.8425,-94.2433,2.0,104.9608503,3.757366099,-99999.0,'11133222,11111222,99999999' 
TABS,ioos:station:wmo:42050:1,2002-07-02T19:00:00Z,28.8425,-94.2433,2.0,148.5890215,7.252895973,-99999.0,'11133222,11111222,99999999' 
TABS,ioos:station:wmo:42050:1,2002-07-02T19:30:00Z,28.8425,-94.2433,2.0,140.2661781,12.24929794,-99999.0,'11111222,11111222,99999999' 
TABS,ioos:station:wmo:42050:1,2002-07-02T20:00:00Z,28.8425,-94.2433,2.0,168.1327459,12.3029468,-99999.0,'11111222,11111222,99999999' 
TABS,ioos:station:wmo:42050:1,2002-07-02T20:30:00Z,28.8425,-94.2433,2.0,154.1862504,11.25286186,-99999.0,'11111222,11111222,99999999' 
TABS,ioos:station:wmo:42050:1,2002-07-02T21:00:00Z,28.8425,-94.2433,2.0,131.8864633,3.384966765,-99999.0,'11133222,11111222,99999999' 
TABS,ioos:station:wmo:42050:1,2002-07-02T21:30:00Z,28.8425,-94.2433,2.0,135.6491094,4.992494367,-99999.0,'11133222,11111222,99999999' 
TABS,ioos:station:wmo:42050:1,2002-07-02T22:00:00Z,28.8425,-94.2433,2.0,77.8423781,3.181351914,-99999.0,'11133222,11111222,99999999' 
TABS,ioos:station:wmo:42050:1,2002-07-02T22:30:00Z,28.8425,-94.2433,2.0,88.72697296,3.150777682,-99999.0,'11133222,11111222,99999999' 
TABS,ioos:station:wmo:42050:1,2002-07-02T23:00:00Z,28.8425,-94.2433,2.0,22.86721329,2.496177077,-99999.0,'11133222,11111222,99999999' 
TABS,ioos:station:wmo:42050:1,2002-07-02T23:30:00Z,28.8425,-94.2433,2.0,182.1313978,4.032790597,-99999.0,'11133222,11111222,99999999' 
TABS,ioos:station:wmo:42050:1,2002-07-03T00:00:00Z,28.8425,-94.2433,2.0,171.5728402,5.731884507,-99999.0,'11133222,11111222,99999999' 
TABS,ioos:station:wmo:42050:1,2002-07-03T00:30:00Z,28.8425,-94.2433,2.0,207.5346243,3.698986348,-99999.0,'11133222,11111222,99999999' 
TABS,ioos:station:wmo:42050:1,2002-07-03T01:00:00Z,28.8425,-94.2433,2.0,247.7179666,2.21542321,-99999.0,'11133222,11111222,99999999' 
TABS,ioos:station:wmo:42050:1,2002-07-03T01:30:00Z,28.8425,-94.2433,2.0,262.039512,2.382960344,-99999.0,'11133222,11111222,99999999' 
TABS,ioos:station:wmo:42050:1,2002-07-03T02:00:00Z,28.8425,-94.2433,2.0,142.5945204,0.856037382,-99999.0,'11133222,11111222,99999999' 
TABS,ioos:station:wmo:42050:1,2002-07-03T02:30:00Z,28.8425,-94.2433,2.0,266.3822544,1.743473544,-99999.0,'11133222,11111222,99999999' 
TABS,ioos:station:wmo:42050:1,2002-07-03T03:00:00Z,28.8425,-94.2433,2.0,38.03542872,5.015037388,-99999.0,'11133222,11111222,99999999' 
TABS,ioos:station:wmo:42050:1,2002-07-03T03:30:00Z,28.8425,-94.2433,2.0,40.3014357,6.215142798,-99999.0,'11133222,11111222,99999999' 
TABS,ioos:station:wmo:42050:1,2002-07-03T04:00:00Z,28.8425,-94.2433,2.0,55.46448805,5.450522911,-99999.0,'11133222,11111222,99999999' 
TABS,ioos:station:wmo:42050:1,2002-07-03T04:30:00Z,28.8425,-94.2433,2.0,46.76840243,5.270455388,-99999.0,'11133222,11111222,99999999' 
TABS,ioos:station:wmo:42050:1,2002-07-03T05:00:00Z,28.8425,-94.2433,2.0,76.39948929,5.103097099,-99999.0,'11133222,11111222,99999999' 
TABS,ioos:station:wmo:42050:1,2002-07-03T05:30:00Z,28.8425,-94.2433,2.0,54.0934178,5.234739726,-99999.0,'11133222,11111222,99999999' 
TABS,ioos:station:wmo:42050:1,2002-07-03T06:00:00Z,28.8425,-94.2433,2.0,52.53182238,7.660417743,-99999.0,'11133222,11111222,99999999' 
TABS,ioos:station:wmo:42050:1,2002-07-03T06:30:00Z,28.8425,-94.2433,2.0,65.38181075,8.161887037,-99999.0,'11133222,11111222,99999999' 
TABS,ioos:station:wmo:42050:1,2002-07-03T07:00:00Z,28.8425,-94.2433,2.0,48.61106142,5.838150392,-99999.0,'11133222,11111222,99999999' 
TABS,ioos:station:wmo:42050:1,2002-07-03T07:30:00Z,28.8425,-94.2433,2.0,60.23781014,8.178850775,-99999.0,'11133222,11111222,99999999' 
TABS,ioos:station:wmo:42050:1,2002-07-03T08:00:00Z,28.8425,-94.2433,2.0,48.71538565,9.821140463,-99999.0,'11133222,11111222,99999999' 
TABS,ioos:station:wmo:42050:1,2002-07-03T08:30:00Z,28.8425,-94.2433,2.0,52.67864707,11.16634676,-99999.0,'11111222,11111222,99999999' 
TABS,ioos:station:wmo:42050:1,2002-07-03T09:00:00Z,28.8425,-94.2433,2.0,57.94126083,10.23004399,-99999.0,'11111222,11111222,99999999' 
TABS,ioos:station:wmo:42050:1,2002-07-03T09:30:00Z,28.8425,-94.2433,2.0,56.48206973,11.08295989,-99999.0,'11111222,11111222,99999999' 
TABS,ioos:station:wmo:42050:1,2002-07-03T10:00:00Z,28.8425,-94.2433,2.0,72.86704391,6.958807369,-99999.0,'11133222,11111222,99999999' 
TABS,ioos:station:wmo:42050:1,2002-07-03T10:30:00Z,28.8425,-94.2433,2.0,63.34116067,5.460485326,-99999.0,'11133222,11111222,99999999' 
TABS,ioos:station:wmo:42050:1,2002-07-03T11:00:00Z,28.8425,-94.2433,2.0,30.46925085,8.144771329,-99999.0,'11133222,11111222,99999999' 
TABS,ioos:station:wmo:42050:1,2002-07-03T11:30:00Z,28.8425,-94.2433,2.0,53.68341371,14.70668555,-99999.0,'11111222,11111222,99999999' 
TABS,ioos:station:wmo:42050:1,2002-07-03T12:00:00Z,28.8425,-94.2433,2.0,48.44053955,15.43567621,-99999.0,'11111222,11111222,99999999' 
TABS,ioos:station:wmo:42050:1,2002-07-03T12:30:00Z,28.8425,-94.2433,2.0,44.8256898,9.291426155,-99999.0,'11133222,11111222,99999999' 
TABS,ioos:station:wmo:42050:1,2002-07-03T13:00:00Z,28.8425,-94.2433,2.0,59.15348472,13.41807736,-99999.0,'11111222,11111222,99999999' 
TABS,ioos:station:wmo:42050:1,2002-07-03T13:30:00Z,28.8425,-94.2433,2.0,67.32596495,12.19231315,-99999.0,'11111222,11111222,99999999' 
TABS,ioos:station:wmo:42050:1,2002-07-03T14:00:00Z,28.8425,-94.2433,2.0,62.53750245,5.13911471,-99999.0,'11133222,11111222,99999999' 
TABS,ioos:station:wmo:42050:1,2002-07-03T14:30:00Z,28.8425,-94.2433,2.0,65.45524031,7.99220245,-99999.0,'11133222,11111222,99999999' 
TABS,ioos:station:wmo:42050:1,2002-07-03T15:00:00Z,28.8425,-94.2433,2.0,77.9739357,12.23860286,-99999.0,'11111222,11111222,99999999' 
TABS,ioos:station:wmo:42050:1,2002-07-03T15:30:00Z,28.8425,-94.2433,2.0,72.78286445,13.98675087,-99999.0,'11111222,11111222,99999999' 
TABS,ioos:station:wmo:42050:1,2002-07-03T16:00:00Z,28.8425,-94.2433,2.0,74.31307489,14.31311636,-99999.0,'11111222,11111222,99999999' 
TABS,ioos:station:wmo:42050:1,2002-07-03T16:30:00Z,28.8425,-94.2433,2.0,84.27350807,14.3315212,-99999.0,'11111222,11111222,99999999' 
TABS,ioos:station:wmo:42050:1,2002-07-03T17:00:00Z,28.8425,-94.2433,2.0,89.67593306,17.6802828,-99999.0,'11111222,11111222,99999999' 
TABS,ioos:station:wmo:42050:1,2002-07-03T17:30:00Z,28.8425,-94.2433,2.0,90.88291095,17.52208036,-99999.0,'11111222,11111222,99999999' 
TABS,ioos:station:wmo:42050:1,2002-07-03T18:00:00Z,28.8425,-94.2433,2.0,105.1933494,14.65213978,-99999.0,'11111222,11111222,99999999' 
TABS,ioos:station:wmo:42050:1,2002-07-03T18:30:00Z,28.8425,-94.2433,2.0,100.4963258,12.84494064,-99999.0,'11111222,11111222,99999999' 
TABS,ioos:station:wmo:42050:1,2002-07-03T19:00:00Z,28.8425,-94.2433,2.0,98.06691287,10.26153985,-99999.0,'11111222,11111222,99999999' 
TABS,ioos:station:wmo:42050:1,2002-07-03T19:30:00Z,28.8425,-94.2433,2.0,100.0805744,7.312892724,-99999.0,'11133222,11111222,99999999' 
TABS,ioos:station:wmo:42050:1,2002-07-03T20:00:00Z,28.8425,-94.2433,2.0,131.3784185,2.798660394,-99999.0,'11133222,11111222,99999999' 
TABS,ioos:station:wmo:42050:1,2002-07-03T20:30:00Z,28.8425,-94.2433,2.0,119.5948235,2.369071548,-99999.0,'11133222,11111222,99999999' 
TABS,ioos:station:wmo:42050:1,2002-07-03T21:00:00Z,28.8425,-94.2433,2.0,90.71915443,2.390188277,-99999.0,'11133222,11111222,99999999' 
TABS,ioos:station:wmo:42050:1,2002-07-03T21:30:00Z,28.8425,-94.2433,2.0,28.58655973,1.901841213,-99999.0,'11133222,11111222,99999999' 
TABS,ioos:station:wmo:42050:1,2002-07-03T22:00:00Z,28.8425,-94.2433,2.0,54.65505975,3.45722432,-99999.0,'11133222,11111222,99999999' 
TABS,ioos:station:wmo:42050:1,2002-07-03T22:30:00Z,28.8425,-94.2433,2.0,106.389502,0.354400903,-99999.0,'11133222,11111222,99999999' 
TABS,ioos:station:wmo:42050:1,2002-07-03T23:00:00Z,28.8425,-94.2433,2.0,92.26049663,3.802959374,-99999.0,'11133222,11111222,99999999' 
TABS,ioos:station:wmo:42050:1,2002-07-03T23:30:00Z,28.8425,-94.2433,2.0,52.76966894,4.1320818,-99999.0,'11133222,11111222,99999999' 
TABS,ioos:station:wmo:42050:1,2002-07-04T00:00:00Z,28.8425,-94.2433,2.0,27.46884139,7.089217164,-99999.0,'11133222,11111222,99999999' 
TABS,ioos:station:wmo:42050:1,2002-07-04T00:30:00Z,28.8425,-94.2433,2.0,9.632238997,3.884765115,-99999.0,'11133222,11111222,99999999' 
TABS,ioos:station:wmo:42050:1,2002-07-04T01:00:00Z,28.8425,-94.2433,2.0,17.22197794,6.721346591,-99999.0,'11133222,11111222,99999999' 
TABS,ioos:station:wmo:42050:1,2002-07-04T01:30:00Z,28.8425,-94.2433,2.0,41.54679705,4.930415804,-99999.0,'11133222,11111222,99999999' 
TABS,ioos:station:wmo:42050:1,2002-07-04T02:00:00Z,28.8425,-94.2433,2.0,26.93104116,12.60720826,-99999.0,'11111222,11111222,99999999' 
TABS,ioos:station:wmo:42050:1,2002-07-04T02:30:00Z,28.8425,-94.2433,2.0,31.94540323,11.11302389,-99999.0,'11111222,11111222,99999999' 
TABS,ioos:station:wmo:42050:1,2002-07-04T03:00:00Z,28.8425,-94.2433,2.0,26.54744444,14.43158342,-99999.0,'11111222,11111222,99999999' 
TABS,ioos:station:wmo:42050:1,2002-07-04T03:30:00Z,28.8425,-94.2433,2.0,26.58186491,15.37520406,-99999.0,'11111222,11111222,99999999' 
TABS,ioos:station:wmo:42050:1,2002-07-04T04:00:00Z,28.8425,-94.2433,2.0,32.64274627,14.86844982,-99999.0,'11111222,11111222,99999999' 
TABS,ioos:station:wmo:42050:1,2002-07-04T04:30:00Z,28.8425,-94.2433,2.0,44.90739391,17.47970251,-99999.0,'11111222,11111222,99999999' 
TABS,ioos:station:wmo:42050:1,2002-07-04T05:00:00Z,28.8425,-94.2433,2.0,41.20007205,11.52289026,-99999.0,'11111222,11111222,99999999' 
TABS,ioos:station:wmo:42050:1,2002-07-04T05:30:00Z,28.8425,-94.2433,2.0,50.57229,11.65160933,-99999.0,'11111222,11111222,99999999' 
TABS,ioos:station:wmo:42050:1,2002-07-04T06:00:00Z,28.8425,-94.2433,2.0,48.17821724,13.13703543,-99999.0,'11111222,11111222,99999999' 
TABS,ioos:station:wmo:42050:1,2002-07-04T06:30:00Z,28.8425,-94.2433,2.0,40.43688615,12.08741494,-99999.0,'11111222,11111222,99999999' 
TABS,ioos:station:wmo:42050:1,2002-07-04T07:00:00Z,28.8425,-94.2433,2.0,48.58048929,12.45524789,-99999.0,'11111222,11111222,99999999' 
TABS,ioos:station:wmo:42050:1,2002-07-04T07:30:00Z,28.8425,-94.2433,2.0,50.52948861,14.01643678,-99999.0,'11111222,11111222,99999999' 
TABS,ioos:station:wmo:42050:1,2002-07-04T08:00:00Z,28.8425,-94.2433,2.0,50.25366205,19.84700733,-99999.0,'11111222,11111222,99999999' 
TABS,ioos:station:wmo:42050:1,2002-07-04T08:30:00Z,28.8425,-94.2433,2.0,53.21194454,22.42602283,-99999.0,'11111222,11111222,99999999' 
TABS,ioos:station:wmo:42050:1,2002-07-04T09:00:00Z,28.8425,-94.2433,2.0,64.81971878,20.54204712,-99999.0,'11111222,11111222,99999999' 
TABS,ioos:station:wmo:42050:1,2002-07-04T09:30:00Z,28.8425,-94.2433,2.0,60.75572732,22.29113277,-99999.0,'11111222,11111222,99999999' 
TABS,ioos:station:wmo:42050:1,2002-07-04T10:00:00Z,28.8425,-94.2433,2.0,64.53953336,26.21605996,-99999.0,'11111222,11111222,99999999' 
TABS,ioos:station:wmo:42050:1,2002-07-04T10:30:00Z,28.8425,-94.2433,2.0,69.86251393,14.58137511,-99999.0,'11111222,11111222,99999999' 
TABS,ioos:station:wmo:42050:1,2002-07-04T11:00:00Z,28.8425,-94.2433,2.0,65.15008807,10.16077261,-99999.0,'11111222,11111222,99999999' 
TABS,ioos:station:wmo:42050:1,2002-07-04T11:30:00Z,28.8425,-94.2433,2.0,74.07543296,26.49685453,-99999.0,'11111222,11111222,99999999' 
TABS,ioos:station:wmo:42050:1,2002-07-04T12:00:00Z,28.8425,-94.2433,2.0,78.22976448,23.67786519,-99999.0,'11111222,11111222,99999999' 
TABS,ioos:station:wmo:42050:1,2002-07-04T12:30:00Z,28.8425,-94.2433,2.0,78.78395523,25.1401611,-99999.0,'11111222,11111222,99999999' 
TABS,ioos:station:wmo:42050:1,2002-07-04T13:00:00Z,28.8425,-94.2433,2.0,84.59022082,23.12299289,-99999.0,'11111222,11111222,99999999' 
TABS,ioos:station:wmo:42050:1,2002-07-04T13:30:00Z,28.8425,-94.2433,2.0,86.76401584,20.37248389,-99999.0,'11111222,11111222,99999999' 
TABS,ioos:station:wmo:42050:1,2002-07-04T14:00:00Z,28.8425,-94.2433,2.0,89.84276756,18.22006861,-99999.0,'11111222,11111222,99999999' 
TABS,ioos:station:wmo:42050:1,2002-07-04T14:30:00Z,28.8425,-94.2433,2.0,115.6718108,2.008233054,-99999.0,'11133222,11111222,99999999' 
TABS,ioos:station:wmo:42050:1,2002-07-04T15:00:00Z,28.8425,-94.2433,2.0,93.48931675,2.464568928,-99999.0,'11133222,11111222,99999999' 
TABS,ioos:station:wmo:42050:1,2002-07-04T15:30:00Z,28.8425,-94.2433,2.0,89.26548068,4.6803846,-99999.0,'11133222,11111222,99999999' 
TABS,ioos:station:wmo:42050:1,2002-07-04T16:00:00Z,28.8425,-94.2433,2.0,127.9598719,4.730856159,-99999.0,'11133222,11111222,99999999' 
TABS,ioos:station:wmo:42050:1,2002-07-04T16:30:00Z,28.8425,-94.2433,2.0,135.6672016,8.5,-99999.0,'11133222,11111222,99999999' 
TABS,ioos:station:wmo:42050:1,2002-07-04T17:00:00Z,28.8425,-94.2433,2.0,135.7072125,7.446401816,-99999.0,'11133222,11111222,99999999' 
TABS,ioos:station:wmo:42050:1,2002-07-04T17:30:00Z,28.8425,-94.2433,2.0,178.4879387,3.411187477,-99999.0,'11133222,11111222,99999999' 
TABS,ioos:station:wmo:42050:1,2002-07-04T18:00:00Z,28.8425,-94.2433,2.0,146.3098008,6.381825758,-99999.0,'11133222,11111222,99999999' 